Torna al catalogo

SL-16 DEB

AttivoLEO
NORAD 23707·DEBRIS·🇷🇺 Russia

Lanciato Oct 31, 1995 da Baikonur Cosmodrome

Loading…

Prossimi Passaggi (prossime 24 ore)

TLE

AggiornatoSource: Space-Track

Epoca: Sep 14, 2026, 13:54 UTC

1 23707U 95058D   26257.57933051  .00000068  00000-0  10459-3 0  9997
2 23707  70.9957 318.3776 0205979 352.0350  76.3394 13.72542749545632

Traccia SL-16 DEB in tempo reale con AllMySat

Download on the App Store